Regional Weather Roundup
Issued by NWS

Home | Current Version | Previous Version | Graphics & Text | Print | Product List | Glossary On
Versions: 1 2 3 4 5 6 7 8 9 10 11 12 13 14 15 16 17 18 19 20 21 22 23 24 25 26 27 28 29 30 31 32 33 34 35 36 37 38 39 40 41 42 43 44 45 46 47 48 49 50
000
ASUS43 KLMK 200902
RWRKY
KENTUCKY REGIONAL WEATHER ROUNDUP
NATIONAL WEATHER SERVICE LOUISVILLE KY
500 AM EDT WED SEP 20 2017

NOTE "FAIR" INDICATES FEW OR NO CLOUDS BELOW 12,000 FEET
WITH NO SIGNIFICANT WEATHER AND/OR OBSTRUCTIONS TO VISIBILITY.

KYZ001>023-026-027-061>063-070>075-201000-
WESTERN AND SOUTH CENTRAL KENTUCKY

CITY           SKY/WX    TMP DP  RH WIND       PRES   REMARKS
PADUCAH        CLEAR     73  67  81 S6        29.91S
HENDERSON      CLEAR     68  66  93 CALM      29.93S
OWENSBORO      CLEAR     68  67  96 S5        29.94S
HOPKINSVILLE   CLEAR     69  68  96 CALM      29.95S
BOWLING GREEN  FOG       65  65 100 CALM      29.97R VSB 3/4
GLASGOW        CLEAR    N/A N/A N/A CALM      29.98S HAZE
$$

KYZ024-025-028>034-038-045-046-053-201000-
NORTH CENTRAL KENTUCKY

CITY           SKY/WX    TMP DP  RH WIND       PRES   REMARKS
LOUISVILLE/SDF PTCLDY    68  67  96 E6        29.96R FOG
LOUISVILLE/LOU FOG       66  66 100 CALM      29.97S VSB 1
FORT KNOX      FOG       65  65 100 CALM      29.95S VSB 1/4
$$

KYZ035>037-039>044-047>052-055>060-089>105-201000-
NORTHEAST KENTUCKY

CITY           SKY/WX    TMP DP  RH WIND       PRES   REMARKS
LEXINGTON      CLEAR     66  64  93 SW5       29.99S FOG
COVINGTON      PTCLDY    62  62 100 S5        29.98R FOG
FRANKFORT      FOG       63  60  90 CALM      29.97S VSB 1/2
$$

KYZ054-064>069-076>088-106>120-201000-
SOUTHEAST KENTUCKY

CITY           SKY/WX    TMP DP  RH WIND       PRES   REMARKS
JACKSON        FOG       67  66  97 CALM      30.01S VSB 1/4
LONDON         FOG       62  61  96 CALM      30.02R VSB 3/4
SOMERSET       NOT AVBL
MIDDLESBORO    CLOUDY    61  61 100 CALM      30.03S FOG
MONTICELLO     NOT AVBL
$$





USA.gov is the U.S. government's official web portal to all federal, state and local government web resources and services.